187  
ASUS41 KCLE 211612  
RWRCLE  
OHIO REGIONAL WEATHER ROUNDUP  
NATIONAL WEATHER SERVICE WILMINGTON, OH  
1200 PM EDT SAT MAY 21 2022  
 
NOTE: "FAIR" INDICATES FEW OR NO CLOUDS BELOW 12,000 FEET WITH NO  
SIGNIFICANT WEATHER AND/OR S TO VISIBILITY
.  
 
OHZ001>008-015>018-024>027-034-035-043-044-211700-  
NORTHWEST OHIO  
 
CITY SKY/WX TMP DP RH WIND PRES REMARKS
 
DEFIANCE FAIR 75 64 68 W10G20 29.97R  
FINDLAY PTSUNNY 81 66 60 SW15G23 29.95R  
TOLEDO EXPRESS FAIR 78 63 59 SW12 29.95R  
TOLEDO EXEC FAIR 79 64 60 SW9 29.95R  
LIMA CLOUDY 80 65 59 W20G29 29.98R  

 
 
OHZ009>014-019>023-028>033-038-089-211700-  
NORTHEAST OHIO  
 
CITY SKY/WX TMP DP RH WIND PRES REMARKS
 
CLE-HOPKINS PTSUNNY 84 67 56 SW18 29.95S  
CLE-LAKEFRONT PTSUNNY 78 67 68 W8 29.95S  
CUY CO. ARPT MOSUNNY 82 68 61 W17 29.98R  
LORAIN-ELYRIA FAIR 84 66 54 W13 29.96F  
ASHTABULA PTSUNNY 83 67 58 SW14G21 29.99R  
AKRON-CANTON PTSUNNY 83 68 60 SW13G21 30.02R  
WOOSTER FAIR 81 67 62 SW10 30.01S  
MANSFIELD FAIR 81 67 62 SW13G22 30.00S  
YOUNGSTOWN PTSUNNY 82 67 60 SW15 30.03R  

 
 
OHZ042-051>053-060>062-070>072-077>081-211700-  
SOUTHWEST OHIO  
 
CITY SKY/WX TMP DP RH WIND PRES REMARKS
 
CINC-COVINGTON FAIR 82 73 74 SW9 30.00S  
CINC-LUNKEN FAIR 84 72 67 SW15 29.98F  
HAMILTON FAIR 83 69 62 SW9 29.99S  
DAYTON PTSUNNY 83 68 60 SW17G24 29.99F  
WRIGHT-PAT AFB FAIR 80 67 62 SW10 29.96F  
DAYTON GENERAL FAIR 81 67 62 SW13 29.99S  
WILMINGTON FAIR 83 70 64 SW13 30.00F  

 
 
OHZ036-037-039>041-045>050-054>059-063>069-073>076-082>088-211700-  
CENTRAL AND SOUTHEAST OHIO  
 
CITY SKY/WX TMP DP RH WIND PRES REMARKS
 
COLUMBUS PTSUNNY 82 70 66 SW13G20 30.00S  
OSU AIRPORT FAIR 85 68 56 SW10 29.98F  
BOLTON FIELD PTSUNNY 82 70 65 W10G17 30.01S  
RICKENBACK AFB PTSUNNY 83 68 61 SW12G17 30.00F  
NEWARK FAIR 85 66 53 SW13 30.01S  
MARION N/A N/A N/A N/A MISG 29.97  
LANCASTER FAIR 83 70 64 S14 30.02S  
ZANESVILLE FAIR 84 67 56 S16 30.03F  
NEW PHILLY FAIR 85 66 53 SW12G18 30.03R  

 
 
 
CLICK HERE TO GO TO PREVIOUS BULLETINS.

The Nexlab OH Page
The Nexlab PA Page Main Text Page